Regional Weather Roundup
Issued by NWS Green Bay, WI

Home | Current Version | Previous Version | Graphics & Text | Print | Product List | Glossary Off
Versions: 1 2 3 4 5 6 7 8 9 10 11 12 13 14 15 16 17 18 19 20 21 22 23 24 25 26 27 28 29 30 31 32 33 34 35 36 37 38 39 40 41 42 43 44 45 46 47 48 49 50

000
ASUS43 KGRB 301059
RWRGRB

NORTH-CENTRAL AND NORTHEAST WISCONSIN REGIONAL WEATHER ROUNDUP
NATIONAL WEATHER SERVICE GREEN BAY WI
600 AM CDT SAT AUG 30 2014

WIZ005-009-010>012-018-019-301200-
NORTH CENTRAL WISCONSIN

CITY           SKY/WX    TMP DP  RH WIND       PRES   REMARKS
IRONWOOD       NOT AVBL
MANITOWISH WTR NOT AVBL
ARBOR VITAE    NOT AVBL
EAGLE RIVER    NOT AVBL
LAND O LAKES   NOT AVBL
RHINELANDER    LGT RAIN  63  62  97 CALM      29.78S FOG
PHILLIPS       NOT AVBL
ANTIGO         NOT AVBL
TOMAHAWK       NOT AVBL
MERRILL        NOT AVBL
$$

WIZ013-073-301200-
NORTHEAST WISCONSIN

CITY           SKY/WX    TMP DP  RH WIND       PRES   REMARKS
IRON MOUNTAIN  RAIN      64  63  96 CALM      29.76F FOG
MARINETTE      CLOUDY    66  64  94 E8        29.74S
$$

WIZ017-030-035>037-045-301200-
CENTRAL WISCONSIN

CITY           SKY/WX    TMP DP  RH WIND       PRES   REMARKS
MEDFORD        NOT AVBL
WAUSAU         LGT RAIN  65  64  97 CALM      29.75R
MOSINEE        LGT RAIN  64  64 100 CALM      29.76R FOG
MARSHFIELD     CLOUDY    67  65  93 CALM      29.76R
WISC RAPIDS    HVY RAIN  67  66  97 E3        29.74S FOG
STEVENS POINT  NOT AVBL
WAUPACA        NOT AVBL
SHAWANO        CLOUDY    68  66  94 CALM      29.75R
CLINTONVILLE   NOT AVBL
$$

WIZ038-039-048-051-301200-
FOX VALLEY

CITY           SKY/WX    TMP DP  RH WIND       PRES   REMARKS
NWS GREEN BAY  CLOUDY    68  67  96 E7        29.75F
APPLETON       CLOUDY    70  68  94 S6        29.75F
OSHKOSH        MOCLDY    70  68  93 S9        29.75S
FOND DU LAC    PTCLDY    70  67  90 SW12      29.76F
$$

WIZ022-050-052-301200-
EAST CENTRAL WISCONSIN

CITY           SKY/WX    TMP DP  RH WIND       PRES   REMARKS
STURGEON BAY   CLOUDY    66  64  94 E5        29.76F
MANITOWOC      NOT AVBL
SHEBOYGAN      MOCLDY    70  67  90 SW9       29.77S
$$

LMZ563-521-522-541>543-301200-
LAKESHORE

STATION/POSITION TIME  TEMP    WIND        PRES    VSBY  WAVE
                       AIR SEA DIR/SP/G                  HT/PER
                 (UTC) (F)     (DEG/KT/KT) (MB)    (MI)  (FT/S)
SHEBOYGAN LKSHOR 1000   70 59  180/ 15/ 16 1008.2F
KEWAUNEE LKSHORE 1000   67      60/  1/  2 1007.0F
ALGOMA MARINA    1000             CALM       N/A
NORTHPORT PIER   1000   67     100/  3/  4 1008.1F
N MID LAKE BUOY  1000   67 65  220/  8/  8 1008.5S         4/ 6
S GREEN BAY BUOY 1000   68     VRB  8/ 10  1008.6S
CHAMBERS ISLAND  1000   68      10/  5/  6 1008.1S
MENOMINEE LKSHOR 1000   67      30/  4/  6 1008.4R
$$


USA.gov is the U.S. government's official web portal to all federal, state and local government web resources and services.